FALCON 9 R/B, 54260

Orbit data source: Space-Track

FALCON 9 R/B, 54260 is space debris in HEO originally from a launch on Wed, 23 Nov 2022 UTC launched from the Air Force Eastern Test Range (AFETR). Debris objects in space refer to the collection of defunct objects orbiting the Earth. Examples of debris include non-operational satellites, rocket bodies, and fragments generated from explosions, collisions, or faulty payload assembly.

Loading next visibility...
Identifier
54260, 2022-157B
Orbit
HEO
Country
Flag of USUS
Related business
Manufacturer
SpaceX
Mission
Spacecraft
Bus & Motor
F9ST2, Unknown motor
Mass
~4,000 kg wet, ~4,000 kg dry
Launch date (UTC)
2022-11-23 (4 years ago)
Launch vehicle
Unknown
Launch site
Air Force Eastern Test Range (AFETR)
Object type
Payload
Rocket body
Debris
Shape & HBR
Cyl, 7.8 m
Radar Cross Section
39.980 m², Large (>1 m²)

Expand to show TLE details & history
Last TLE update: 3 days ago

TLE from 3 days ago
0 FALCON 9 R/B
1 54260U 22157B   26170.73548538  .00000111  00000-0  37913-3 0  9992
2 54260  21.9314 340.1598 7742584  15.7583 358.6638  1.71533151 19427
Epoch: 2026-06-19T17:39Z
TLE epoch observation values (Epoch: 2026-06-19T17:39:05.936Z)
Latitude
0.00396°
Longitude
167.4336°
Altitude
424.367 km
Speed
10.181 km/s
True Right ascension
22h 40m 40s
True Declination
0° 00' 14"
Sunlit
Object was in daylight at epoch
Visualization orbit readout
Latitude
Unknown
Longitude
Unknown
Altitude
Unknown
Speed
Unknown
Apparent Right ascension
Unknown
Apparent Declination
Unknown
Sunlit
N/A
Visualization observer readout
Local Sidereal Time
23:21:06
Azimuth
Unknown
Elevation
Unknown
Doppler factor
Unknown
Orbital elements
Apogee altitude
45,932.371 km
Perigee altitude
277.409 km
Semi-major axis
29,483.027 km
Eccentricity
0.77426
Inclination
21.9314°
RAAN
340.1598°
Arg. of periapsis
15.7583°
True anomaly
343.60326°
Mean anomaly
358.6638°
Eccentric anomaly
354.11629°
Mean motion
0.42873 °/min
Orbital period
839.69 mins
BSTAR
0.00037913
Loading maneuver chart data...
Computing Atmospheric mass density...
Loading historical data...
Loading historical data...
Loading historical data...
Loading historical data...
Loading historical data...
Loading historical data...
Loading historical data...
Other satellites on launch #157 in the year 2022 (2022-11-23 UTC)

Documentation

Showing up to 5 results
|